FUTABA (53463 NORAD) Tracking and Keplerian Element Data

This shows tracking and keplerian element data for the satellite.

Feedback or suggestion? Click here.




ElementValue
Catalog53463
NameFUTABA
Epoch Orbit1568
Epoch Day325.06042012
Epoch Year2022
RAAN275.0855
Inclination51.6359
Eccentricity0.001036
Argument of Perigee122.0495
Mean Anonmoly238.1507
Mean Motion15.63047907
Decay Rate0.00071088
L11 53463U 98067UC 22325.06042012 .00071088 00000+0 76370-3 0 9999
L22 53463 51.6359 275.0855 0010360 122.0495 238.1507 15.63047907 15685



Live tracking and technical data element details for FUTABA (NORAD 53463). FUTABA can be tracked NOW for your location showing map with azimuth and elevation plus other details from your city location.







IsCatalogInMostPopularTable: catalog: 53463, numindb: 7
Update: records affected: 1



GetName: 53463 FUTABA

Hit Count: updated at: Thu, 08 Dec 2022 10:07:47 GMT